Location: Chippewa Lake
(41.0698°N, 81.9010°W)
Time: 05:30:10
(UTC+00:00)

SL-8 Rocket - Pass Details

Date: 01 October 2021
Orbit: 958 x 990 km, 82.9° (Epoch: 17 October)

Event Time Altitude Azimuth Distance (km) Brightness Sun altitude
Rises 02:31:12 0° 240° (WSW) 3,683 7.3 -36.9°
Reaches altitude 10° 02:35:07 10° 264° (W) 2,745 6.8 -37.5°
Maximum altitude 02:38:20 14° 295° (WNW) 2,449 6.7 -38.0°
Drops below altitude 10° 02:41:35 10° 326° (NNW) 2,758 7.0 -38.5°
Sets 02:45:34 0° 351° (N) 3,712 7.6 -39.1°
